Time,TemperatureF,DewpointF,PressureIn,WindDirection,WindDirectionDegrees,WindSpeedMPH,WindSpeedGustMPH,Humidity,HourlyPrecipIn,Conditions,Clouds,dailyrainin,SolarRadiationWatts/m^2,SoftwareType,DateUTC
2013-03-30 00:00:00,48.0,46.1,30.26,South,179,0.0,0.0,93,0.00,,,0.00,0,WeatherTracker,2013-03-30 04:00:00,
2013-03-30 00:01:00,47.9,46.0,30.26,South,179,0.0,0.0,93,0.00,,,0.00,0,WeatherTracker,2013-03-30 04:01:00,
2013-03-30 00:06:00,47.9,46.0,30.26,South,179,0.0,0.0,93,0.00,,,0.00,0,WeatherTracker,2013-03-30 04:06:00,
2013-03-30 00:11:00,47.9,46.0,30.26,South,179,0.0,0.0,93,0.00,,,0.00,0,WeatherTracker,2013-03-30 04:11:00,
2013-03-30 00:16:00,47.9,46.0,30.26,South,179,0.0,0.0,93,0.00,,,0.00,0,WeatherTracker,2013-03-30 04:16:00,
2013-03-30 00:21:00,48.0,46.1,30.26,South,179,0.0,0.0,93,0.00,,,0.00,0,WeatherTracker,2013-03-30 04:21:00,
2013-03-30 00:26:00,47.8,45.9,30.26,South,179,0.0,0.0,93,0.00,,,0.00,0,WeatherTracker,2013-03-30 04:26:00,
2013-03-30 00:31:00,47.6,45.7,30.26,South,179,0.0,0.0,93,0.00,,,0.00,0,WeatherTracker,2013-03-30 04:31:00,
2013-03-30 00:36:00,47.5,45.6,30.26,South,179,1.0,0.0,93,0.00,,,0.00,0,WeatherTracker,2013-03-30 04:36:00,
2013-03-30 00:41:00,47.5,45.6,30.27,South,179,0.0,0.0,93,0.00,,,0.00,0,WeatherTracker,2013-03-30 04:41:00,
2013-03-30 00:46:00,47.4,45.5,30.26,South,179,0.0,0.0,93,0.00,,,0.00,0,WeatherTracker,2013-03-30 04:46:00,
2013-03-30 00:51:00,47.5,45.6,30.26,South,179,0.0,0.0,93,0.00,,,0.00,0,WeatherTracker,2013-03-30 04:51:00,
2013-03-30 00:56:00,47.4,45.5,30.26,South,179,0.0,0.0,93,0.00,,,0.00,0,WeatherTracker,2013-03-30 04:56:00,
2013-03-30 01:01:00,47.6,45.7,30.26,South,179,0.0,0.0,93,0.00,,,0.00,0,WeatherTracker,2013-03-30 05:01:00,
2013-03-30 01:06:00,47.4,45.5,30.26,South,179,0.0,0.0,93,0.00,,,0.00,0,WeatherTracker,2013-03-30 05:06:00,
2013-03-30 01:11:00,47.4,45.5,30.26,South,179,0.0,0.0,93,0.00,,,0.00,0,WeatherTracker,2013-03-30 05:11:00,
2013-03-30 01:16:00,47.3,45.4,30.25,South,179,0.0,0.0,93,0.00,,,0.00,0,WeatherTracker,2013-03-30 05:16:00,
2013-03-30 01:21:00,47.2,45.6,30.25,South,179,0.0,0.0,94,0.00,,,0.00,0,WeatherTracker,2013-03-30 05:21:00,
2013-03-30 01:26:00,47.0,45.1,30.25,South,179,0.0,0.0,93,0.00,,,0.00,0,WeatherTracker,2013-03-30 05:26:00,
2013-03-30 01:31:00,46.8,44.9,30.25,South,179,0.0,0.0,93,0.00,,,0.00,0,WeatherTracker,2013-03-30 05:31:00,
2013-03-30 01:37:00,46.6,45.0,30.25,South,179,0.0,0.0,94,0.00,,,0.00,0,WeatherTracker,2013-03-30 05:37:00,
2013-03-30 01:42:00,46.5,44.9,30.25,South,179,0.0,0.0,94,0.00,,,0.00,0,WeatherTracker,2013-03-30 05:42:00,
2013-03-30 01:47:00,46.5,44.9,30.25,South,179,0.0,0.0,94,0.00,,,0.00,0,WeatherTracker,2013-03-30 05:47:00,
2013-03-30 01:52:00,46.4,44.8,30.25,South,179,0.0,0.0,94,0.00,,,0.00,0,WeatherTracker,2013-03-30 05:52:00,
2013-03-30 01:57:00,46.4,45.0,30.25,South,179,0.0,0.0,95,0.00,,,0.00,0,WeatherTracker,2013-03-30 05:57:00,
2013-03-30 02:02:00,46.3,44.9,30.25,South,179,0.0,0.0,95,0.00,,,0.00,0,WeatherTracker,2013-03-30 06:02:00,
2013-03-30 02:07:00,46.4,45.0,30.25,South,179,0.0,0.0,95,0.00,,,0.00,0,WeatherTracker,2013-03-30 06:07:00,
2013-03-30 02:12:00,46.7,45.3,30.25,South,179,0.0,0.0,95,0.00,,,0.00,0,WeatherTracker,2013-03-30 06:12:00,
2013-03-30 02:17:00,46.7,45.1,30.25,South,179,0.0,0.0,94,0.00,,,0.00,0,WeatherTracker,2013-03-30 06:17:00,
2013-03-30 02:22:00,47.1,45.5,30.25,South,179,0.0,0.0,94,0.00,,,0.00,0,WeatherTracker,2013-03-30 06:22:00,
2013-03-30 02:27:00,47.0,45.1,30.25,South,179,0.0,0.0,93,0.00,,,0.00,0,WeatherTracker,2013-03-30 06:27:00,
2013-03-30 02:32:00,46.7,44.8,30.25,South,179,0.0,0.0,93,0.00,,,0.00,0,WeatherTracker,2013-03-30 06:32:00,
2013-03-30 02:37:00,46.5,44.9,30.25,South,179,0.0,0.0,94,0.00,,,0.00,0,WeatherTracker,2013-03-30 06:37:00,
2013-03-30 02:42:00,46.5,44.9,30.25,South,179,0.0,0.0,94,0.00,,,0.00,0,WeatherTracker,2013-03-30 06:42:00,
2013-03-30 02:47:00,46.4,44.8,30.25,South,179,0.0,0.0,94,0.00,,,0.00,0,WeatherTracker,2013-03-30 06:47:00,
2013-03-30 02:52:00,46.2,44.6,30.25,South,179,0.0,0.0,94,0.00,,,0.00,0,WeatherTracker,2013-03-30 06:52:00,
2013-03-30 02:57:00,45.9,44.3,30.24,South,179,0.0,0.0,94,0.00,,,0.00,0,WeatherTracker,2013-03-30 06:57:00,
2013-03-30 03:02:00,46.0,44.4,30.24,South,179,0.0,0.0,94,0.00,,,0.00,0,WeatherTracker,2013-03-30 07:02:00,
2013-03-30 03:07:00,46.0,44.4,30.24,South,179,0.0,0.0,94,0.00,,,0.00,0,WeatherTracker,2013-03-30 07:07:00,
2013-03-30 03:13:00,46.1,44.5,30.24,South,179,0.0,0.0,94,0.00,,,0.00,0,WeatherTracker,2013-03-30 07:13:00,
2013-03-30 03:18:00,46.2,44.6,30.24,South,179,0.0,0.0,94,0.00,,,0.00,0,WeatherTracker,2013-03-30 07:18:00,
2013-03-30 03:23:00,46.3,44.7,30.24,South,174,1.0,0.0,94,0.00,,,0.00,0,WeatherTracker,2013-03-30 07:23:00,
2013-03-30 03:28:00,46.7,45.1,30.24,South,174,0.0,0.0,94,0.00,,,0.00,0,WeatherTracker,2013-03-30 07:28:00,
2013-03-30 03:33:00,47.4,45.5,30.23,South,174,0.0,0.0,93,0.00,,,0.00,0,WeatherTracker,2013-03-30 07:33:00,
2013-03-30 03:38:00,47.5,45.3,30.23,South,174,0.0,0.0,92,0.00,,,0.00,0,WeatherTracker,2013-03-30 07:38:00,
2013-03-30 03:43:00,47.3,45.1,30.23,South,174,0.0,0.0,92,0.00,,,0.00,0,WeatherTracker,2013-03-30 07:43:00,
2013-03-30 03:48:00,47.3,45.1,30.23,South,174,0.0,0.0,92,0.00,,,0.00,0,WeatherTracker,2013-03-30 07:48:00,
2013-03-30 03:53:00,47.1,44.9,30.23,South,174,1.0,0.0,92,0.00,,,0.00,0,WeatherTracker,2013-03-30 07:53:00,
2013-03-30 03:58:00,47.2,45.0,30.22,South,175,0.0,0.0,92,0.00,,,0.00,0,WeatherTracker,2013-03-30 07:58:00,
2013-03-30 04:03:00,47.8,45.9,30.23,South,184,0.0,0.0,93,0.00,,,0.00,0,WeatherTracker,2013-03-30 08:03:00,
2013-03-30 04:08:00,47.8,45.6,30.23,SSW,207,0.0,0.0,92,0.00,,,0.00,0,WeatherTracker,2013-03-30 08:08:00,
2013-03-30 04:13:00,47.2,45.0,30.23,SSW,212,0.0,0.0,92,0.00,,,0.00,0,WeatherTracker,2013-03-30 08:13:00,
2013-03-30 04:18:00,47.0,45.1,30.23,SW,216,0.0,0.0,93,0.00,,,0.00,0,WeatherTracker,2013-03-30 08:18:00,
2013-03-30 04:23:00,46.8,44.9,30.23,SW,224,0.0,0.0,93,0.00,,,0.00,0,WeatherTracker,2013-03-30 08:23:00,
2013-03-30 04:28:00,46.8,44.9,30.23,SW,224,0.0,0.0,93,0.00,,,0.00,0,WeatherTracker,2013-03-30 08:28:00,
2013-03-30 04:33:00,46.6,45.0,30.23,WSW,240,0.0,0.0,94,0.00,,,0.00,0,WeatherTracker,2013-03-30 08:33:00,
2013-03-30 04:38:00,46.4,44.8,30.23,WSW,242,1.0,0.0,94,0.00,,,0.00,0,WeatherTracker,2013-03-30 08:38:00,
2013-03-30 04:43:00,46.3,44.7,30.23,WSW,242,0.0,0.0,94,0.00,,,0.00,0,WeatherTracker,2013-03-30 08:43:00,
2013-03-30 04:48:00,46.1,44.7,30.22,SSW,207,0.0,0.0,95,0.00,,,0.00,0,WeatherTracker,2013-03-30 08:48:00,
2013-03-30 04:53:00,45.9,44.5,30.22,South,179,0.0,0.0,95,0.00,,,0.00,0,WeatherTracker,2013-03-30 08:53:00,
2013-03-30 04:58:00,45.7,44.4,30.22,South,179,0.0,0.0,95,0.01,,,0.01,0,WeatherTracker,2013-03-30 08:58:00,
2013-03-30 05:03:00,45.7,44.4,30.22,South,179,0.0,0.0,95,0.02,,,0.02,0,WeatherTracker,2013-03-30 09:03:00,
2013-03-30 05:08:00,45.6,44.3,30.22,South,179,0.0,0.0,95,0.02,,,0.02,0,WeatherTracker,2013-03-30 09:08:00,
2013-03-30 05:13:00,45.4,44.1,30.22,South,179,0.0,0.0,95,0.02,,,0.02,0,WeatherTracker,2013-03-30 09:13:00,
2013-03-30 05:18:00,45.2,43.9,30.22,South,179,0.0,0.0,95,0.03,,,0.03,0,WeatherTracker,2013-03-30 09:18:00,
2013-03-30 05:23:00,45.1,43.8,30.22,South,179,0.0,0.0,95,0.03,,,0.03,0,WeatherTracker,2013-03-30 09:23:00,
2013-03-30 05:29:00,45.0,43.7,30.22,South,179,0.0,0.0,95,0.04,,,0.04,0,WeatherTracker,2013-03-30 09:29:00,
2013-03-30 05:34:00,45.0,43.7,30.22,South,179,0.0,0.0,95,0.04,,,0.04,0,WeatherTracker,2013-03-30 09:34:00,
2013-03-30 05:39:00,44.8,43.5,30.22,South,179,0.0,0.0,95,0.04,,,0.04,0,WeatherTracker,2013-03-30 09:39:00,
2013-03-30 05:44:00,44.4,43.1,30.22,South,179,0.0,0.0,95,0.04,,,0.04,0,WeatherTracker,2013-03-30 09:44:00,
2013-03-30 05:49:00,44.1,42.8,30.22,South,179,0.0,0.0,95,0.04,,,0.04,0,WeatherTracker,2013-03-30 09:49:00,
2013-03-30 05:54:00,43.9,42.6,30.22,South,179,0.0,0.0,95,0.03,,,0.04,0,WeatherTracker,2013-03-30 09:54:00,
2013-03-30 05:59:00,43.8,42.5,30.22,South,179,0.0,0.0,95,0.03,,,0.04,0,WeatherTracker,2013-03-30 09:59:00,
2013-03-30 06:04:00,43.5,42.4,30.22,South,179,0.0,0.0,96,0.02,,,0.04,0,WeatherTracker,2013-03-30 10:04:00,
2013-03-30 06:09:00,43.3,42.2,30.22,South,179,0.0,0.0,96,0.02,,,0.04,0,WeatherTracker,2013-03-30 10:09:00,
2013-03-30 06:14:00,43.2,42.1,30.22,South,179,0.0,0.0,96,0.02,,,0.04,0,WeatherTracker,2013-03-30 10:14:00,
2013-03-30 16:52:00,73.6,50.9,30.12,South,173,9.0,0.0,45,0.00,,,0.05,589,WeatherTracker,2013-03-30 20:52:00,
2013-03-30 16:57:00,72.9,51.5,30.12,SSE,150,5.0,0.0,47,0.00,,,0.05,570,WeatherTracker,2013-03-30 20:57:00,
2013-03-30 17:02:00,73.0,52.1,30.11,SSE,155,3.0,0.0,48,0.00,,,0.05,548,WeatherTracker,2013-03-30 21:02:00,
2013-03-30 17:07:00,72.3,49.8,30.11,SE,136,11.0,0.0,45,0.00,,,0.05,543,WeatherTracker,2013-03-30 21:07:00,
2013-03-30 17:12:00,71.5,49.6,30.11,SSE,159,7.0,0.0,46,0.00,,,0.05,519,WeatherTracker,2013-03-30 21:12:00,
2013-03-30 17:17:00,71.3,50.0,30.11,SSE,160,4.0,0.0,47,0.00,,,0.05,499,WeatherTracker,2013-03-30 21:17:00,
2013-03-30 17:22:00,71.2,49.9,30.11,SSE,155,4.0,0.0,47,0.00,,,0.05,482,WeatherTracker,2013-03-30 21:22:00,
2013-03-30 17:28:00,70.7,49.5,30.11,SE,130,7.0,0.0,47,0.00,,,0.05,443,WeatherTracker,2013-03-30 21:28:00,
2013-03-30 17:33:00,70.4,51.4,30.11,SSE,165,7.0,0.0,51,0.00,,,0.05,432,WeatherTracker,2013-03-30 21:33:00,
2013-03-30 17:38:00,70.1,51.6,30.11,SE,130,3.0,0.0,52,0.00,,,0.05,90,WeatherTracker,2013-03-30 21:38:00,
2013-03-30 17:43:00,69.2,52.3,30.11,South,173,3.0,0.0,55,0.00,,,0.05,97,WeatherTracker,2013-03-30 21:43:00,
2013-03-30 17:48:00,69.0,53.1,30.11,SSE,157,6.0,0.0,57,0.00,,,0.05,107,WeatherTracker,2013-03-30 21:48:00,
2013-03-30 17:53:00,68.8,53.4,30.11,SSE,154,5.0,0.0,58,0.00,,,0.05,111,WeatherTracker,2013-03-30 21:53:00,
2013-03-30 17:58:00,68.8,54.3,30.11,SSE,161,3.0,0.0,60,0.00,,,0.05,178,WeatherTracker,2013-03-30 21:58:00,
2013-03-30 18:03:00,68.7,54.2,30.11,SE,132,5.0,0.0,60,0.00,,,0.05,88,WeatherTracker,2013-03-30 22:03:00,
2013-03-30 18:08:00,68.2,54.2,30.11,SE,130,3.0,0.0,61,0.00,,,0.05,67,WeatherTracker,2013-03-30 22:08:00,
2013-03-30 18:13:00,68.1,54.6,30.11,SE,141,4.0,0.0,62,0.00,,,0.05,65,WeatherTracker,2013-03-30 22:13:00,
2013-03-30 18:18:00,68.1,54.6,30.11,SSE,153,5.0,0.0,62,0.00,,,0.05,257,WeatherTracker,2013-03-30 22:18:00,
2013-03-30 18:23:00,68.2,55.1,30.11,ESE,115,5.0,0.0,63,0.00,,,0.05,232,WeatherTracker,2013-03-30 22:23:00,
2013-03-30 18:28:00,68.3,55.2,30.11,SSE,157,4.0,0.0,63,0.00,,,0.05,214,WeatherTracker,2013-03-30 22:28:00,
2013-03-30 18:33:00,68.3,55.2,30.11,SSE,153,3.0,0.0,63,0.00,,,0.05,178,WeatherTracker,2013-03-30 22:33:00,
2013-03-30 18:38:00,68.1,55.0,30.11,SE,136,4.0,0.0,63,0.00,,,0.05,162,WeatherTracker,2013-03-30 22:38:00,
2013-03-30 18:43:00,67.9,55.3,30.11,North,9,2.0,0.0,64,0.00,,,0.05,148,WeatherTracker,2013-03-30 22:43:00,
2013-03-30 18:48:00,67.7,55.5,30.12,SSE,154,5.0,0.0,65,0.00,,,0.05,127,WeatherTracker,2013-03-30 22:48:00,
2013-03-30 18:53:00,67.4,55.2,30.11,SE,143,1.0,0.0,65,0.00,,,0.05,93,WeatherTracker,2013-03-30 22:53:00,
2013-03-30 18:58:00,67.2,54.6,30.12,SE,142,2.0,0.0,64,0.00,,,0.05,74,WeatherTracker,2013-03-30 22:58:00,
2013-03-30 19:03:00,67.2,54.6,30.12,SSE,154,5.0,0.0,64,0.00,,,0.05,49,WeatherTracker,2013-03-30 23:03:00,
2013-03-30 19:08:00,67.0,54.0,30.12,SE,138,4.0,0.0,63,0.00,,,0.05,69,WeatherTracker,2013-03-30 23:08:00,
2013-03-30 19:13:00,66.9,53.4,30.12,SSE,148,4.0,0.0,62,0.00,,,0.05,37,WeatherTracker,2013-03-30 23:13:00,
2013-03-30 19:18:00,66.5,53.5,30.12,SSE,151,2.0,0.0,63,0.00,,,0.05,26,WeatherTracker,2013-03-30 23:18:00,
2013-03-30 19:23:00,66.2,53.2,30.12,SE,138,4.0,0.0,63,0.00,,,0.05,21,WeatherTracker,2013-03-30 23:23:00,
2013-03-30 19:28:00,66.1,53.1,30.12,SSE,148,3.0,0.0,63,0.00,,,0.05,16,WeatherTracker,2013-03-30 23:28:00,
2013-03-30 19:33:00,65.9,53.4,30.12,SE,138,1.0,0.0,64,0.00,,,0.05,12,WeatherTracker,2013-03-30 23:33:00,
2013-03-30 19:38:00,65.3,53.2,30.12,SE,136,4.0,0.0,65,0.00,,,0.05,7,WeatherTracker,2013-03-30 23:38:00,
2013-03-30 19:43:00,65.3,53.2,30.12,SE,128,4.0,0.0,65,0.00,,,0.05,0,WeatherTracker,2013-03-30 23:43:00,
2013-03-30 19:48:00,65.0,53.4,30.12,SSE,147,2.0,0.0,66,0.00,,,0.05,0,WeatherTracker,2013-03-30 23:48:00,
2013-03-30 19:53:00,64.9,53.7,30.13,SSE,150,2.0,0.0,67,0.00,,,0.05,0,WeatherTracker,2013-03-30 23:53:00,
2013-03-30 19:58:00,64.7,53.5,30.13,SSE,158,2.0,0.0,67,0.00,,,0.05,0,WeatherTracker,2013-03-30 23:58:00,
2013-03-30 20:04:00,64.4,53.6,30.13,SSE,160,1.0,0.0,68,0.00,,,0.05,0,WeatherTracker,2013-03-31 00:04:00,
2013-03-30 20:09:00,64.0,53.2,30.13,SSE,155,1.0,0.0,68,0.00,,,0.05,0,WeatherTracker,2013-03-31 00:09:00,
2013-03-30 20:14:00,63.8,53.4,30.13,SE,140,1.0,0.0,69,0.00,,,0.05,0,WeatherTracker,2013-03-31 00:14:00,
2013-03-30 20:19:00,63.4,53.4,30.13,SSE,150,0.0,0.0,70,0.00,,,0.05,0,WeatherTracker,2013-03-31 00:19:00,
2013-03-30 20:24:00,63.0,53.1,30.13,SSE,163,1.0,0.0,70,0.00,,,0.05,0,WeatherTracker,2013-03-31 00:24:00,
2013-03-30 20:29:00,62.4,53.2,30.13,SSE,163,0.0,0.0,72,0.00,,,0.05,0,WeatherTracker,2013-03-31 00:29:00,
2013-03-30 20:34:00,61.8,53.0,30.13,SSE,160,1.0,0.0,73,0.00,,,0.05,0,WeatherTracker,2013-03-31 00:34:00,
2013-03-30 20:39:00,61.8,53.0,30.13,South,173,1.0,0.0,73,0.00,,,0.05,0,WeatherTracker,2013-03-31 00:39:00,
2013-03-30 20:44:00,61.6,52.9,30.14,South,173,0.0,0.0,73,0.00,,,0.05,0,WeatherTracker,2013-03-31 00:44:00,
2013-03-30 20:49:00,61.3,52.6,30.14,South,173,1.0,0.0,73,0.00,,,0.05,0,WeatherTracker,2013-03-31 00:49:00,
2013-03-30 20:54:00,61.1,52.4,30.14,South,173,1.0,0.0,73,0.00,,,0.05,0,WeatherTracker,2013-03-31 00:54:00,
2013-03-30 20:59:00,60.6,52.3,30.14,South,173,0.0,0.0,74,0.00,,,0.05,0,WeatherTracker,2013-03-31 00:59:00,
2013-03-30 21:04:00,60.0,52.4,30.14,South,173,0.0,0.0,76,0.00,,,0.05,0,WeatherTracker,2013-03-31 01:04:00,
2013-03-30 21:09:00,59.7,52.5,30.14,South,173,0.0,0.0,77,0.00,,,0.05,0,WeatherTracker,2013-03-31 01:09:00,
2013-03-30 21:14:00,59.3,52.8,30.14,South,173,0.0,0.0,79,0.00,,,0.05,0,WeatherTracker,2013-03-31 01:14:00,
2013-03-30 21:19:00,59.2,53.0,30.14,South,173,1.0,0.0,80,0.00,,,0.05,0,WeatherTracker,2013-03-31 01:19:00,
2013-03-30 21:24:00,59.1,52.6,30.14,South,173,0.0,0.0,79,0.00,,,0.05,0,WeatherTracker,2013-03-31 01:24:00,
2013-03-30 21:29:00,59.3,52.8,30.14,SSE,166,1.0,0.0,79,0.00,,,0.05,0,WeatherTracker,2013-03-31 01:29:00,
2013-03-30 21:34:00,59.9,52.7,30.14,South,170,2.0,0.0,77,0.00,,,0.05,0,WeatherTracker,2013-03-31 01:34:00,
2013-03-30 21:39:00,60.0,52.4,30.14,SSE,167,0.0,0.0,76,0.00,,,0.05,0,WeatherTracker,2013-03-31 01:39:00,
2013-03-30 21:44:00,59.8,52.6,30.14,SSE,167,1.0,0.0,77,0.00,,,0.05,0,WeatherTracker,2013-03-31 01:44:00,
2013-03-30 21:49:00,59.9,52.3,30.15,SSE,165,1.0,0.0,76,0.00,,,0.05,0,WeatherTracker,2013-03-31 01:49:00,
2013-03-30 21:54:00,59.7,52.5,30.15,SSE,163,3.0,0.0,77,0.00,,,0.05,0,WeatherTracker,2013-03-31 01:54:00,
2013-03-30 22:00:00,59.6,52.0,30.15,SSE,157,1.0,0.0,76,0.00,,,0.05,0,WeatherTracker,2013-03-31 02:00:00,
2013-03-30 22:05:00,59.6,51.7,30.15,SSE,163,2.0,0.0,75,0.00,,,0.05,0,WeatherTracker,2013-03-31 02:05:00,
2013-03-30 22:10:00,59.8,51.5,30.15,SSE,162,0.0,0.0,74,0.00,,,0.05,0,WeatherTracker,2013-03-31 02:10:00,
2013-03-30 22:15:00,59.5,51.6,30.15,SSE,163,0.0,0.0,75,0.00,,,0.05,0,WeatherTracker,2013-03-31 02:15:00,
2013-03-30 22:20:00,59.0,51.4,30.15,SSE,164,0.0,0.0,76,0.00,,,0.05,0,WeatherTracker,2013-03-31 02:20:00,
2013-03-30 22:25:00,58.7,51.5,30.15,SSE,164,0.0,0.0,77,0.00,,,0.05,0,WeatherTracker,2013-03-31 02:25:00,
2013-03-30 22:30:00,58.6,51.4,30.15,SSE,164,1.0,0.0,77,0.00,,,0.05,0,WeatherTracker,2013-03-31 02:30:00,
2013-03-30 22:35:00,58.7,51.2,30.16,SSE,164,0.0,0.0,76,0.00,,,0.05,0,WeatherTracker,2013-03-31 02:35:00,
2013-03-30 22:40:00,58.5,51.3,30.15,SSE,164,0.0,0.0,77,0.00,,,0.05,0,WeatherTracker,2013-03-31 02:40:00,
2013-03-30 22:45:00,58.0,51.2,30.16,SSE,164,0.0,0.0,78,0.00,,,0.05,0,WeatherTracker,2013-03-31 02:45:00,
2013-03-30 22:50:00,57.3,51.2,30.16,SSE,164,0.0,0.0,80,0.00,,,0.05,0,WeatherTracker,2013-03-31 02:50:00,
2013-03-30 22:55:00,56.9,50.8,30.16,SSE,164,0.0,0.0,80,0.00,,,0.05,0,WeatherTracker,2013-03-31 02:55:00,
2013-03-30 23:00:00,56.8,50.4,30.16,SSE,164,0.0,0.0,79,0.00,,,0.05,0,WeatherTracker,2013-03-31 03:00:00,
2013-03-30 23:05:00,57.0,49.5,30.16,SSE,163,0.0,0.0,76,0.00,,,0.05,0,WeatherTracker,2013-03-31 03:05:00,
2013-03-30 23:10:00,57.4,49.5,30.16,SSE,163,0.0,0.0,75,0.00,,,0.05,0,WeatherTracker,2013-03-31 03:10:00,
2013-03-30 23:15:00,57.6,49.4,30.16,SSE,163,0.0,0.0,74,0.00,,,0.05,0,WeatherTracker,2013-03-31 03:15:00,
2013-03-30 23:20:00,57.2,49.7,30.16,SSE,163,1.0,0.0,76,0.00,,,0.05,0,WeatherTracker,2013-03-31 03:20:00,
2013-03-30 23:25:00,57.0,49.2,30.16,South,169,0.0,0.0,75,0.00,,,0.05,0,WeatherTracker,2013-03-31 03:25:00,
2013-03-30 23:31:00,57.2,49.0,30.15,South,169,0.0,0.0,74,0.00,,,0.05,0,WeatherTracker,2013-03-31 03:31:00,
2013-03-30 23:36:00,56.8,49.3,30.15,South,169,0.0,0.0,76,0.00,,,0.05,0,WeatherTracker,2013-03-31 03:36:00,
2013-03-30 23:41:00,56.2,49.4,30.15,South,169,0.0,0.0,78,0.00,,,0.05,0,WeatherTracker,2013-03-31 03:41:00,
2013-03-30 23:46:00,56.1,49.3,30.15,South,169,0.0,0.0,78,0.00,,,0.05,0,WeatherTracker,2013-03-31 03:46:00,
2013-03-30 23:51:00,55.7,50.0,30.15,South,169,0.0,0.0,81,0.00,,,0.05,0,WeatherTracker,2013-03-31 03:51:00,
2013-03-30 23:56:00,55.6,49.5,30.15,South,169,1.0,0.0,80,0.00,,,0.05,0,WeatherTracker,2013-03-31 03:56:00,